This demonstration page uses our WeatherBlox Daily Observations layout. Learn more.

Left ArrowRight Arrow

Hourly Observations for January 10, 2022

Temp ( °F °C ) Dew Point ( °F °C ) Humidity (%) Winds ( mph kmh ) Pressure ( in mb ) Visibility ( mi km ) Precip ( " mm )
12:51 am 00:51 Clear 44 6.7 30 -1.1 58 58 SE 7 11 30.40 1030 10 16 0.00 0.00
1:51 am 01:51 Clear 43 6.1 30 -1.1 60 60 SE 10 17 30.40 1030 10 16 0.00 0.00
2:51 am 02:51 Clear 41 5 29 -1.7 62 62 ESE 7 11 30.41 1030 10 16 0.00 0.00
3:51 am 03:51 Clear 42 5.6 29 -1.7 60 60 ESE 10 17 30.41 1030 10 16 0.00 0.00
4:51 am 04:51 Clear 42 5.6 29 -1.7 60 60 E 12 19 30.41 1030 10 16 0.00 0.00
5:51 am 05:51 Clear 38 3.3 28 -2.2 68 68 SSE 8 13 30.44 1031 10 16 0.00 0.00
6:51 am 06:51 Clear 40 4.4 28 -2.2 63 63 ESE 12 19 30.46 1031 10 16 0.00 0.00
7:51 am 07:51 Sunny 42 5.6 29 -1.7 60 60 ESE 10 17 30.49 1032 10 16 0.00 0.00
8:51 am 08:51 Sunny 46 7.8 29 -1.7 51 51 E 12 19 30.50 1033 10 16 0.00 0.00
9:51 am 09:51 Sunny 49 9.4 29 -1.7 46 46 SE 9 15 30.51 1033 10 16 0.00 0.00
10:51 am 10:51 Sunny 52 11.1 29 -1.7 41 41 ESE 8 13 30.48 1032 10 16 0.00 0.00
11:51 am 11:51 Sunny 56 13.3 28 -2.2 34 34 SSE 9 15 30.44 1031 10 16 0.00 0.00
12:51 pm 12:51 Sunny 58 14.4 28 -2.2 32 32 SE 15 24 30.40 1030 10 16 0.00 0.00
1:51 pm 13:51 Sunny 60 15.6 27 -2.8 28 28 ESE 13 20 30.36 1028 10 16 0.00 0.00
2:51 pm 14:51 Cloudy 56 13.3 32 0 40 40 S 15 24 30.37 1028 10 16 0.00 0.00
3:51 pm 15:51 Cloudy 55 12.8 33 0.6 44 44 SSE 12 19 30.36 1028 10 16 0.00 0.00
4:51 pm 16:51 Cloudy 55 12.8 35 1.7 47 47 SSE 10 17 30.36 1028 10 16 0.00 0.00
5:51 pm 17:51 Cloudy 54 12.2 35 1.7 49 49 SE 8 13 30.37 1029 10 16 0.00 0.00
6:51 pm 18:51 Clear 49 9.4 36 2.2 61 61 SE 5 7 30.40 1029 10 16 0.00 0.00
7:51 pm 19:51 Clear 47 8.3 36 2.2 66 66 S 13 20 30.40 1029 10 16 0.00 0.00
8:51 pm 20:51 Clear 45 7.2 36 2.2 71 71 SSE 12 19 30.41 1030 10 16 0.00 0.00
9:51 pm 21:51 Clear 44 6.7 35 1.7 71 71 ESE 8 13 30.42 1030 10 16 0.00 0.00
10:51 pm 22:51 Clear 41 5 35 1.7 79 79 E 7 11 30.43 1030 10 16 0.00 0.00
11:51 pm 23:51 Clear 41 5 34 1.1 76 76 E 7 11 30.42 1030 10 16 0.00 0.00

Powered by AerisWeather